Location: Waldport
(44.4270°N, 124.0680°W)
Time: 03:48:39
(UTC-08:00)

Meteor 1-26 Rocket - Visible Passes

Search period start: 27 February 2017 00:00
Search period end: 09 March 2017 00:00
Orbit: 832 x 903 km, 81.3° (Epoch: 26 February)

Date Brightness Start Highest point End Pass type
(mag) Time Alt. Az. Time Alt. Az. Time Alt. Az.
27 Feb 6.6 03:18:35 12° ESE 03:21:36 18° E 03:25:13 10° NE visible
27 Feb 4.1 05:01:02 26° SSW 05:04:18 65° WNW 05:09:52 10° N visible
28 Feb 6.6 03:12:43 15° ESE 03:14:39 18° E 03:18:18 10° NE visible
28 Feb 4.1 04:55:08 36° SW 04:57:21 64° WNW 05:02:54 10° N visible
01 Mar 6.5 03:06:37 17° E 03:07:42 18° E 03:11:24 10° NE visible
01 Mar 4.1 04:49:02 47° SW 04:50:25 63° WNW 04:55:58 10° N visible
02 Mar 6.4 03:00:22 18° E 03:00:44 19° E 03:04:29 10° NE visible
02 Mar 4.1 04:42:47 57° WSW 04:43:29 62° WNW 04:49:00 10° N visible
03 Mar 6.5 02:54:00 19° E 02:54:00 19° E 02:57:33 10° NE visible
03 Mar 4.1 04:36:24 60° W 04:36:31 61° WNW 04:42:03 10° N visible
04 Mar 6.5 02:47:34 19° ENE 02:47:34 19° ENE 02:50:38 10° NE visible
04 Mar 4.2 04:29:57 58° WNW 04:29:57 58° WNW 04:35:06 10° N visible
05 Mar 6.5 02:41:03 18° ENE 02:41:03 18° ENE 02:43:43 10° NE visible
05 Mar 4.4 04:23:26 53° NW 04:23:26 53° NW 04:28:08 10° N visible
06 Mar 6.6 02:34:29 18° ENE 02:34:29 18° ENE 02:36:48 10° NE visible
06 Mar 4.6 04:16:52 48° NNW 04:16:52 48° NNW 04:21:11 10° N visible
07 Mar 6.6 02:27:52 17° ENE 02:27:52 17° ENE 02:29:52 10° NE visible
07 Mar 4.8 04:10:15 43° NNW 04:10:15 43° NNW 04:14:13 10° N visible
08 Mar 6.7 02:21:12 16° ENE 02:21:12 16° ENE 02:22:57 10° NE visible
08 Mar 5.0 04:03:36 39° NNW 04:03:36 39° NNW 04:07:16 10° N visible
